+ View the NASA Portal
+ Center for Near-Earth Object Studies
IMPORTANT:
The SSD Announcement email list is now available. Major changes are coming in the near future, including possible hostname and/or URL changes. To be notified of such changes, subscribe to this email list.
Please visit
this page
for more details.
Don't show this message again
JPL Small-Body Database Browser
Search:
[
help
]
136468 (2005 EF283)
Classification:
Main-belt Asteroid
SPK-ID:
2136468
[
Ephemeris
|
Orbit Diagram
|
Orbital Elements
|
Mission Design
|
Physical Parameters
|
Discovery Circumstances
|
Close-Approach Data
]
[ show orbit diagram ]
Orbital Elements at Epoch 2458600.5 (2019-Apr-27.0) TDB
Reference:
JPL 19
(heliocentric ecliptic J2000)
Element
Value
Uncertainty (1-sigma)
Units
e
.09920930342549467
3.3642e-08
a
2.448394564996618
1.4746e-08
au
q
2.205491045692537
8.1745e-08
au
i
6.660038374601145
4.2481e-06
deg
node
147.6287074439609
4.3104e-05
deg
peri
163.0897033998218
5.2809e-05
deg
M
125.4754658354356
3.1962e-05
deg
t
p
2458112.772938607489
(2017-Dec-25.27293861)
0.0001223
TDB
period
1399.33126314577
3.83
1.2641e-05
3.461e-08
d
yr
n
.2572657450607522
2.3241e-09
deg/d
Q
2.691298084300699
1.6209e-08
au
Orbit Determination Parameters
# obs. used (total)
612
data-arc span
8974 days (24.57 yr)
first obs. used
1994-06-16
last obs. used
2019-01-10
planetary ephem.
DE431
SB-pert. ephem.
SB431-N16
condition code
0
norm. resid. RMS
.5727
source
ORB
producer
Otto Matic
solution date
2019-Jul-14 04:06:39
Additional Information
Earth MOID
= 1.19145 au
Jupiter MOID
= 2.53339 au
T_jup
= 3.481
[ show covariance matrix ]
[
Ephemeris
|
Orbit Diagram
|
Orbital Elements
|
Mission Design
|
Physical Parameters
|
Discovery Circumstances
|
Close-Approach Data
]
Physical Parameter Table
Parameter
Symbol
Value
Units
Sigma
Reference
Notes
absolute magnitude
H
15.8
n/a
MPO417721
136468 (2005 EF283)
Discovered 2005-Mar-11 by Spacewatch at Kitt Peak
Reference:
20060907/Numbers.arc
Last Updated:
2006-09-10
[ show close-approach data ]
[
Ephemeris
|
Orbit Diagram
|
Orbital Elements
|
Mission Design
|
Physical Parameters
|
Discovery Circumstances
|
Close-Approach Data
]
2019-Dec-11 20:58 UT
(server date/time)
Site Manager:
Ryan S. Park
Webmaster
:
Alan B. Chamberlin